Tracking 30995 objects as of 5-Jul-2025
HD Live streaming from Space Station
objects crossing your sky now

BRAZILSAT B2

Track BRAZILSAT B2 now!
BRAZILSAT B2 is classified as:


NORAD ID: 23536
Int'l Code: 1995-016A
Perigee: 36,075.5 km
Apogee: 36,096.7 km
Inclination: 11.6 °
Period: 1,451.1 minutes
Semi major axis: 42457 km
RCS: 7.5458 m2 (large)
Launch date: March 28, 1995
Source: Brazil (BRAZ)
Launch site: FRENCH GUIANA (FRGUI)

24 C-band; several X-band.
Your satellite tracking list
Your tracking list is empty




NASA's NSSDC Master Catalog

Two Line Element Set (TLE):
1 23536U 95016A   25186.51463006 -.00000168  00000-0  00000-0 0  9993
2 23536  11.5565  34.1931 0002498 151.6185  30.5231  0.99237846110650
Source of the keplerian elements: AFSPC